Simultaneous Nadir Overpasses (SNOs) Predictions

Prediction of SNOs between METOP-B and NOAA-19 Satellite Orbit:

Table of predicted SNOs for the next 14.0 days since TLE Epoch: 8/15/2015
Index Date (METOP-B) Time (METOP-B) Lat,Lon (METOP-B) SZA (METOP-B ) Date (NOAA-19) Time (NOAA-19) Lat,Lon (NOAA-19) SZA (NOAA-19 ) Distance(km) Time Diff (sec)
1 08/24/2015 05:03:45 75.51, 103.06 64.22 08/24/2015 05:02:36 75.54, 100.81 64.30 62.61 69
2 08/24/2015 05:54:35 -75.14, -90.73 116.13 08/24/2015 05:53:33 -75.13, -90.65 116.13 2.48 62
3 08/24/2015 06:45:14 75.16, 76.66 63.91 08/24/2015 06:44:30 75.15, 76.55 63.90 3.20 44
4 08/24/2015 07:35:57 -75.12,-116.12 116.12 08/24/2015 07:35:35 -75.10,-116.08 116.14 2.05 22
5 08/24/2015 08:26:37 75.09, 51.13 63.87 08/24/2015 08:26:32 75.12, 51.12 63.90 3.88 5
6 08/24/2015 09:17:19 -75.10,-141.52 116.12 08/24/2015 09:17:37 -75.08,-141.51 116.14 2.32 18
7 08/24/2015 10:07:59 75.07, 25.73 63.87 08/24/2015 10:08:34 75.10, 25.69 63.90 3.40 35
8 08/24/2015 10:58:41 -75.08,-166.91 116.11 08/24/2015 10:59:39 -75.05,-166.94 116.14 3.13 58
9 08/24/2015 11:49:21 75.05, 0.34 63.88 08/24/2015 11:50:35 75.03, 0.40 63.85 3.24 74




NCC Satellite Simultaneous Nadir Overpasses (SNOs) Prediction Service
